sat.trackr.live / text

‹ back to catalog

STARLINK-36969

NORAD 68167 · 2026-050A

PAYLOAD ACTIVE UNKNOWN

§ Identity

Operator
Country
US
Launch date
2026-03-14
Launch site
AFETR
Launch vehicle
Mass (kg)
RCS (m²)

Purposes: comms

External: N2YO · Heavens-Above · Gunter

§ Orbital elements

Epoch: 2026-09-20T00:10:19.187328Z

Period
93.85 min
Inclination
53.1590°
Eccentricity
0.0001475
Mean motion
15.34404165 rev/d
Perigee alt
461.7 km
Apogee alt
463.7 km
Semi-major
6,840.8 km
B*
5.1340e-4
RAAN
79.9391°
Arg perigee
83.6708°
Mean anomaly
276.4463°
Rev number
3,049

§ Raw data

STARLINK-369691 68167U 26050A   26263.00716652  .00017012  00000+0  51340-3 0  99932 68167  53.1590  79.9391 0001475  83.6708 276.4463 15.34404165 30491

JSON: /api/v1/satellites/68167 · /tle

For live sub-satellite position, see the globe view (requires WebGL).

§ Visibility from observer

Set your observer location to see the next 7 days of passes ≥ 10°. The values pass through the URL so the page stays shareable.

No JS? Fill the form by hand. The geolocation button needs JavaScript.